This is the latest recevied weather packets stored in our database for station/object OK2KJT-11. If no packets are shown the sender has not sent any weather packets the latest 10 day(s).
| Time | Temp. | Humidity | Pressure | Rain* | Wind** | Luminosity | Snow |
|---|---|---|---|---|---|---|---|
| 1787642632 | 15.56° C | 65% | 1018 hPa | - | - | - | - |
| 1787642032 | 15.56° C | 65% | 1018.1 hPa | - | - | - | - |
| 1787641430 | 15° C | 66% | 1018 hPa | - | - | - | - |
| 1787640831 | 14.44° C | 67% | 1017.9 hPa | - | - | - | - |
| 1787640231 | 13.89° C | 69% | 1018.1 hPa | - | - | - | - |
| 1787639632 | 13.89° C | 68% | 1018.2 hPa | - | - | - | - |
| 1787639032 | 13.89° C | 67% | 1018.3 hPa | - | - | - | - |
| 1787638432 | 13.89° C | 67% | 1018.2 hPa | - | - | - | - |
| 1787637832 | 13.33° C | 67% | 1018.2 hPa | - | - | - | - |
| 1787637232 | 13.33° C | 67% | 1018.2 hPa | - | - | - | - |
| 1787636632 | 12.78° C | 67% | 1018.3 hPa | - | - | - | - |
| 1787636032 | 12.22° C | 69% | 1018.3 hPa | - | - | - | - |
| 1787635432 | 12.22° C | 68% | 1018.2 hPa | - | - | - | - |
| 1787634832 | 12.22° C | 68% | 1018.2 hPa | - | - | - | - |
| 1787634232 | 12.22° C | 67% | 1018.2 hPa | - | - | - | - |
| 1787633640 | 11.67° C | 68% | 1018.2 hPa | - | - | - | - |
| 1787633076 | 11.67° C | 67% | 1018.1 hPa | - | - | - | - |
| 1787633032 | 11.67° C | 67% | 1018.1 hPa | - | - | - | - |
| 1787632432 | 12.22° C | 67% | 1018.2 hPa | - | - | - | - |
| 1787631833 | 12.22° C | 64% | 1018.4 hPa | - | - | - | - |
| 1787630633 | 12.78° C | 63% | 1018.3 hPa | - | - | - | - |
| 1787630035 | 12.78° C | 63% | 1018.3 hPa | - | - | - | - |
| 1787629435 | 12.78° C | 64% | 1018.4 hPa | - | - | - | - |
| 1787628836 | 12.22° C | 64% | 1018.4 hPa | - | - | - | - |
| 1787628237 | 12.22° C | 66% | 1018.4 hPa | - | - | - | - |
* Rain since midnight (hover to see other rain measurements)
** Current wind speed in m/s (hover to see current wind gust speed)